This demonstration page uses our WeatherBlox Daily Observations layout. Learn more.

39.92423, -83.80882

Hourly Observations for May 7, 2015

Temp ( °F °C ) Dew Point ( °F °C ) Humidity (%) Winds ( mph kmh ) Pressure ( in mb ) Visibility ( mi km ) Precip ( " mm )
12:56 am 00:56 Hazy 63 17.2 58 14.4 84 84 E 6 9 30.14 1021 6 9.65604 0 0
1:56 am 01:56 Clear with Mist and Fog 62 16.6 58 14.4 87 87 ENE 5 7 30.14 1021 6 9.65604 0 0
2:56 am 02:56 Hazy 62 16.6 57 13.8 84 84 E 5 7 30.12 1020 6 9.65604 0 0
3:56 am 03:56 Clear with Mist and Fog 60 15.5 57 13.8 90 90 ENE 5 7 30.12 1020 6 9.65604 0 0
4:56 am 04:56 Clear with Mist and Fog 60 15.5 56 13.3 87 87 ENE 3 6 30.12 1020 6 9.65604 0 0
5:56 am 05:56 Clear with Mist and Fog 58 14.4 56 13.3 93 93 NE 6 9 30.12 1020 6 9.65604 0 0
6:56 am 06:56 Sunny with Mist and Fog 58 14.4 56 13.3 93 93 E 3 6 30.14 1021 4 6.43736 0 0
7:56 am 07:56 Sunny with Mist and Fog 64 17.7 61 16.1 90 90 E 3 6 30.14 1021 4 6.43736 0 0
8:56 am 08:56 Hazy 71 21.6 62 16.6 73 73 ESE 7 11 30.14 1021 5 8.0467 0 0
9:56 am 09:56 Hazy 78 25.5 62 16.6 58 58 ESE 7 11 30.14 1021 5 8.0467 0 0
10:56 am 10:56 Hazy 83 28.3 59 15 44 44 SE 8 13 30.13 1020 6 9.65604 0 0
11:56 am 11:56 Hazy 84 28.8 58 14.4 41 41 ESE 5 7 30.13 1020 6 9.65604 0 0
12:56 pm 12:56 Hazy 87 30.5 55 12.7 34 34 SSE 10 17 30.12 1020 6 9.65604 0 0
1:56 pm 13:56 Hazy 88 31.1 56 13.3 34 34 S 7 11 30.1 1019 5 8.0467 0 0
2:56 pm 14:56 Hazy 85 29.4 55 12.7 36 36 S 6 9 30.09 1019 6 9.65604 0 0.0254
3:56 pm 15:56 Hazy 85 29.4 55 12.7 36 36 SW 6 9 30.07 1018 6 9.65604 0 0
4:56 pm 16:56 Hazy 86 30 55 12.7 35 35 SSE 6 9 30.05 1018 6 9.65604 0 0
5:56 pm 17:56 Hazy 85 29.4 56 13.3 37 37 SW 6 9 30.04 1017 6 9.65604 0 0
6:56 pm 18:56 Hazy 82 27.7 60 15.5 47 47 SW 5 7 30.04 1017 6 9.65604 0 0
7:56 pm 19:56 Hazy 82 27.7 58 14.4 44 44 SSW 5 7 30.03 1017 6 9.65604 0 0
8:56 pm 20:56 Hazy 75 23.8 57 13.8 54 54 Calm 30.03 1017 4 6.43736 0 0
9:56 pm 21:56 Clear 70 21.1 58 14.4 66 66 SSE 5 7 30.04 1017 7 11.26538 0 0
10:56 pm 22:56 Clear 68 20 56 13.3 65 65 S 5 7 30.04 1017 7 11.26538 0 0
11:56 pm 23:56 Mostly Clear 70 21.1 59 15 68 68 SSE 5 7 30.04 1017 7 11.26538 0 0

Powered by AerisWeather